Douglas, WY

8:33 AM MDT on April 23, 2017 (GMT -0600)
Converse County

Weather History for KDGW - March, 2013

Change the Weather History Date:

Wednesday, March 6, 2013

  Actual Average Record
Temperature  
Mean Temperature 39 °F 32 °F  
Max Temperature 62 °F 46 °F 68 °F (2016)
Min Temperature 15 °F 19 °F 13 °F (2015)
Degree Days  
Heating Degree Days 26 33  
Month to date heating degree days 189 203  
Since 1 July heating degree days 5220 5603  
Cooling Degree Days 0 0  
Month to date cooling degree days 0 0  
Year to date cooling degree days 0 0  
Moisture  
Dew Point 17 °F    
Average Humidity 50    
Maximum Humidity 81    
Minimum Humidity 19    
Precipitation  
Precipitation 0.00 in 0.02 in 0.18 in (2011)
Month to date precipitation T 0.10  
Year to date precipitation 0.49 0.89  
Sea Level Pressure  
Sea Level Pressure 29.91 in    
Wind  
Wind Speed 8 mph (WSW)    
Max Wind Speed 30 mph    
Max Gust Speed 38 mph    
Visibility 10 miles    
Events      
T = Trace of Precipitation, MM = Missing Value Source: NWS Daily Summary

Daily Weather History Graph

Daily Weather History Graph

Search for Another Location

Airport or City:

Trip Planner

Search our weather history database for the weather conditions in past years. The results will help you decide how hot, cold, wet, or windy it might be!

Date:

Astronomy

Mar. 06, 2013 Rise Set
Actual Time 6:28 AM MST 5:57 PM MST
Civil Twilight 6:00 AM MST 6:25 PM MST
Nautical Twilight 5:27 AM MST 6:58 PM MST
Astronomical Twilight 4:54 AM MST 7:31 PM MST
Moon 2:45 AM MST (3/6) 12:36 PM MST (3/6)
Length of Visible Light 12h 25m
Length of Day
11h 29m
Waning Crescent, 29% of the Moon is Illuminated
Mar 6
Waning Crescent
Mar 11
New
Mar 19
First Quarter
Mar 27
Full
Apr 2
Last Quarter

Hourly Weather History & Observations

Time (MST) Temp. Windchill Dew Point Humidity Pressure Visibility Wind Dir Wind Speed Gust Speed Precip Events Conditions
12:53 AM 21.9 °F 14.5 °F 14.0 °F 72% 30.12 in 10.0 mi SSE 5.8 mph - N/A   Clear
1:53 AM 21.0 °F - 12.9 °F 71% 30.09 in 10.0 mi Calm Calm - N/A   Clear
2:53 AM 19.9 °F - 14.0 °F 78% 30.07 in 10.0 mi Calm Calm - N/A   Clear
3:53 AM 18.0 °F - 12.9 °F 81% 30.07 in 10.0 mi Calm Calm - N/A   Clear
4:53 AM 19.0 °F - 12.9 °F 77% 30.06 in 10.0 mi Calm Calm - N/A   Clear
5:53 AM 17.1 °F 11.7 °F 12.0 °F 81% 30.09 in 10.0 mi WNW 3.5 mph - N/A   Clear
6:53 AM 18.0 °F - 12.9 °F 81% 30.10 in 10.0 mi Calm Calm - N/A   Clear
7:53 AM 25.0 °F 20.7 °F 19.0 °F 78% 30.06 in 10.0 mi SE 3.5 mph - N/A   Clear
8:53 AM 35.1 °F - 21.0 °F 57% 30.02 in 10.0 mi Calm Calm - N/A   Clear
9:53 AM 45.0 °F - 19.9 °F 37% 29.96 in 10.0 mi Calm Calm - N/A   Clear
10:53 AM 55.9 °F - 17.1 °F 22% 29.88 in 10.0 mi WSW 16.1 mph 20.7 mph N/A   Clear
11:53 AM 60.1 °F - 18.0 °F 20% 29.86 in 10.0 mi WSW 13.8 mph - N/A   Clear
12:53 PM 62.1 °F - 19.0 °F 19% 29.82 in 10.0 mi WSW 19.6 mph 26.5 mph N/A   Clear
1:53 PM 57.0 °F - 18.0 °F 22% 29.80 in 10.0 mi WSW 19.6 mph 25.3 mph N/A   Clear
2:53 PM 57.0 °F - 18.0 °F 22% 29.81 in 10.0 mi WSW 12.7 mph 27.6 mph N/A   Clear
3:53 PM 57.9 °F - 19.0 °F 22% 29.79 in 10.0 mi SW 19.6 mph 27.6 mph N/A   Clear
4:53 PM 57.0 °F - 18.0 °F 22% 29.79 in 10.0 mi WSW 17.3 mph 25.3 mph N/A   Clear
5:53 PM 48.0 °F - 19.0 °F 32% 29.84 in 10.0 mi WSW 6.9 mph - N/A   Clear
6:53 PM 46.0 °F 41.9 °F 19.9 °F 35% 29.85 in 10.0 mi WSW 8.1 mph - N/A   Clear
7:53 PM 43.0 °F 37.7 °F 19.9 °F 40% 29.83 in 10.0 mi West 9.2 mph - N/A   Clear
8:53 PM 46.9 °F - 18.0 °F 32% 29.79 in 10.0 mi WSW 8.1 mph - N/A   Clear
9:53 PM 46.0 °F 42.5 °F 18.0 °F 33% 29.77 in 10.0 mi WSW 6.9 mph 16.1 mph N/A   Clear
10:53 PM 44.1 °F 41.5 °F 19.0 °F 37% 29.74 in 10.0 mi SW 4.6 mph - N/A   Clear
11:53 PM 48.9 °F - 18.0 °F 29% 29.72 in 10.0 mi SSW 4.6 mph - N/A   Clear